Find Starlink 1958

NORAD ID: 47559 Int'l Des: 2021-009 Owner: SPXS Country: US Constellation: starlink operational
LEOCIRCULAR

現在のビュー

3D地球を読み込み中...

About Starlink 1958

Starlink 1958 (NORAD 47559) is a starlink constellation satellite (v1.0) launched Feb 4, 2021 by SPXS of US. It operates in LEO, CIRCULAR orbit with a mass of 260.00 kg.

Starlink 1958について

説明を読み込み中...

次回通過

Passes for default location (London). Set your location on the main map for personalized predictions.

高度履歴

Loading altitude history...

軌道要素

1 47559U 21009M 26170.21114843 .01441964 17730-2 84782-3 0 9993
2 47559 53.0233 170.2120 0001612 222.9002 137.1909 16.18462120297715
Epoch: Jun 19, 2026 • Age: 10 hours

現在のステータス

高度 226.4 km
速度 7.77 km/s
衛星直下点 -24.45°S, 122.25°W
打ち上げ日 Feb 4, 2021
運用期間 5.3 years
タイプ internet

技術仕様

分類 Payload
質量 260.00 kg
乾燥質量 248.00 kg
総質量 260.00 kg
長さ 0.20 m
直径 2.80 m
スパン 9.00 m
形状 Box + pan
製造者 SPXS
バスタイプ Starlink
フェーズステータス In Orbit
所有者/国 SPXS/US

Most Searched